Regional Weather Roundup
Issued by NWS

Home | Current Version | Previous Version | Text Only | Print | Product List | Glossary Off
Versions: 1 2 3 4 5 6 7 8 9 10 11 12 13 14 15 16 17 18 19 20 21 22 23 24 25 26 27 28 29 30 31 32 33 34 35 36 37 38 39 40 41 42 43 44 45 46 47 48 49 50

000
ASUS43 KIND 061709
RWRIN

WEATHER ROUNDUP FOR INDIANA
NATIONAL WEATHER SERVICE INDIANAPOLIS IN
1200 PM EST SAT FEB 06 2016

NOTE: "FAIR" INDICATES FEW OR NO CLOUDS BELOW 12,000 FEET WITH NO
SIGNIFICANT WEATHER AND/OR OBSTRUCTIONS TO VISIBILITY.

* - STATION DOES NOT REPORT WEATHER SUCH AS PRECIPITATION OR FOG.

+ - STATION NOT QUALITY CONTROLLED BY THE NATIONAL WEATHER SERVICE.
    USE DATA WITH CAUTION...ESPECIALLY DEWPOINT AND RELATIVE
    HUMIDITY OBSERVATIONS.

INZ001>003-010>013-019-020-061800-
NORTHWEST INDIANA

CITY           SKY/WX    TMP DP  RH WIND       PRES   REMARKS
GARY /AIRPORT/ MOSUNNY   36  21  55 SW10      30.27F
LA PORTE +     SUNNY     35  27  72 SW12      30.27F WCI  27
MICHIGAN CITY+ SUNNY     36  25  64 SW10      30.27F
MONTICELLO +   SUNNY     33  23  66 S9        30.30F WCI  26
RENSSELAER +   SUNNY     36  27  69 S12       30.29F
VALPARAISO     SUNNY     36  25  64 SW13      30.27F

$$

LMZ046-743>745-061800-
SOUTHERN LAKE MICHIGAN

STATION/POSITION TIME  TEMP    WIND        PRES    WAVE
                       AIR SEA DIR/SP/G            HT
                 (UTC) (F)     (DEG/KT/KT) (MB)    (FT)
BURNS HARBOR     1600   32     220/ 12/ 16 1026.1F
MICHIGAN CITY    1600   31     180/ 10/ 12   N/A

$$

INZ004-005-014>016-021>024-061800-
NORTH CENTRAL INDIANA

CITY           SKY/WX    TMP DP  RH WIND       PRES   REMARKS
ELKHART        SUNNY     32  23  69 MISG      30.27F
GOSHEN         MOSUNNY   32  24  72 SW14      30.27F WCI  22
LOGANSPORT +   SUNNY     34  23  64 SW8       30.31F WCI  27
PERU/GRISSOM   SUNNY     34  24  67 W10       30.28F WCI  26
ROCHESTER +    SUNNY     36  21  55 SW9       30.30F
SOUTH BEND     SUNNY     32  23  69 SW14      30.28F WCI  22
WARSAW +       SUNNY     32  25  74 SW10G16   30.29F WCI  24

$$

INZ006>009-017-018-025>027-061800-
NORTHEAST INDIANA

CITY           SKY/WX    TMP DP  RH WIND       PRES   REMARKS
ANGOLA *+      MOSUNNY   32  25  74 SW13      30.26F WCI  22
AUBURN +       MOSUNNY   34  25  69 W12       30.29F WCI  25
FORT WAYNE     PTSUNNY   31  24  75 SW13      30.31S WCI  21
HUNTINGTON +   MOSUNNY   33  21  61 W8        30.30F WCI  26

$$

INZ028-029-035-036-043>045-051>053-061800-
WEST CENTRAL INDIANA

CITY           SKY/WX    TMP DP  RH WIND       PRES   REMARKS
GREENCASTLE +  SUNNY     36  18  48 SW5       30.32F
LAFAYETTE      SUNNY     35  24  64 SW8       30.31F WCI  29
TERRE HAUTE    SUNNY     39  25  57 S3        30.34F

$$

INZ030>032-037>040-046>048-054>057-064-065-061800-
CENTRAL INDIANA

CITY           SKY/WX    TMP DP  RH WIND       PRES   REMARKS
ANDERSON       SUNNY     36  25  64 W7        30.33
FRANKFORT +    SUNNY     36  20  53 S6        30.32F
GREENWOOD *+   SUNNY     36  28  75 SW5       30.34F
INDIANAPOLIS   MOSUNNY   34  24  67 VRB7      30.32F WCI  28
-EAGLE CREEK   SUNNY     35  24  64 S7        30.32F WCI  29
KOKOMO *+        N/A     36 N/A N/A W8        30.30F
MARION +       SUNNY     32  18  55 W6        30.32F WCI  26
MT COMFORT *+  MOSUNNY   34  25  69 SW7       30.33S WCI  28
SHELBYVILLE    PTSUNNY   34  27  75 SW3       30.33F
ZIONSVILLE +   SUNNY     33  24  69 SW6       30.32F WCI  27

$$

INZ033-034-041-042-049-050-058-059-061800-
EAST CENTRAL INDIANA

CITY           SKY/WX    TMP DP  RH WIND       PRES   REMARKS
MUNCIE         SUNNY     35  22  58 W8        30.31F WCI  29

$$

INZ060-061-067>069-081>083-085>088-061800-
SOUTHWEST INDIANA

CITY           SKY/WX    TMP DP  RH WIND       PRES   REMARKS
EVANSVILLE     SUNNY     47  27  45 CALM      30.36F
HUNTINGBURG *+ CLOUDY    39  28  65 W3        30.36F
WASHINGTON +   SUNNY     39  30  71 SE3       30.35F

$$

INZ062-063-066-070>080-084-089>092-061800-
SOUTH CENTRAL AND SOUTHEAST INDIANA

CITY           SKY/WX    TMP DP  RH WIND       PRES   REMARKS
BEDFORD +      SUNNY     41  27  56 CALM      30.34F
BLOOMINGTON    SUNNY     40  22  48 SW5       30.33F
MADISON *+     CLOUDY    41  21  45 CALM      30.35F
NORTH VERNON + CLOUDY    37  23  56 CALM      30.35S
SEYMOUR +      CLOUDY    39  27  60 CALM      30.35F

$$




USA.gov is the U.S. government's official web portal to all federal, state and local government web resources and services.